Home   Weather   Salamanca   Past weeks
Flag for Spain

Past Weather in Salamanca, Spain — Yesterday and Last 2 Weeks

Now
59 °F

Passing clouds.


Feels Like: 57 °F
Forecast: 63 / 50 °F
Wind: 13 mph from Southwest

Location: Salamanca / Matacan

Current Time: Oct 16, 2019 at 7:42:48 pm

Latest Report: Oct 16, 2019 at 7:00 pm


Visibility: N/A

Pressure: 30.07 "Hg (27.34 "Hg at 802m altitude)

Humidity: 59%

Dew Point: 45 °F

Location of SalamancaLocation

Past Weather in Salamanca — Graph

°F

Salamanca Temperature Yesterday

Maximum temperature yesterday: 57 °F (at 3:30 pm)
Minimum temperature yesterday: 36 °F (at 8:00 am)
Average temperature yesterday: 48 °F

High & Low Weather Summary for the Past Weeks

 TemperatureHumidityPressure
High84 °F (Oct 8, 4:00 pm)100% (Oct 2, 7:00 am)30.24 "Hg (Oct 2, 7:00 am)
Low36 °F (Oct 15, 8:00 am)17% (Oct 7, 5:30 pm)29.80 "Hg (Oct 14, 4:30 am)
Average58 °F66%30.10 "Hg
* Reported Oct 1 6:00 pm — Oct 16 6:30 pm, Salamanca. Weather by CustomWeather, © 2019

Note: Actual official high and low records may vary slightly from our data, if they occured in-between our weather recording intervals... More about our weather records

Advertising

Salamanca Weather History for the Previous 24 Hours

Scroll right to see more
 ConditionsComfort  
Time TempWeatherWind HumidityBarometerVisibility
6:30 pm
Wed, Oct 16
63 °FPassing clouds.13 mph52%30.07 "HgN/A
6:00 pm63 °FPassing clouds.12 mph49%30.07 "HgN/A
5:30 pm63 °FPassing clouds.12 mph49%30.07 "HgN/A
5:00 pm64 °FPassing clouds.10 mph46%30.07 "HgN/A
4:30 pm63 °FPassing clouds.10 mph49%30.07 "HgN/A
4:00 pm64 °FPassing clouds.13 mph46%30.07 "HgN/A
3:30 pm63 °FSunny.9 mph49%30.09 "Hg10 mi
3:00 pm63 °FPassing clouds.13 mph49%30.09 "HgN/A
2:30 pm61 °FPassing clouds.12 mph52%30.12 "HgN/A
2:00 pm61 °FPassing clouds.12 mph45%30.12 "HgN/A
1:30 pm61 °FPassing clouds.13 mph45%30.12 "HgN/A
1:00 pm59 °FPassing clouds.14 mph51%30.12 "HgN/A
12:30 pm57 °FSunny.12 mph55%30.12 "Hg10 mi
12:00 pm55 °FSunny.15 mph55%30.15 "Hg10 mi
11:30 am55 °FPassing clouds.13 mph63%30.15 "HgN/A
11:00 am52 °FPassing clouds.14 mph72%30.15 "HgN/A
10:30 am52 °FPassing clouds.12 mph77%30.15 "HgN/A
10:00 am50 °FPassing clouds.8 mph82%30.15 "HgN/A
9:30 am45 °FSunny.3 mph93%30.15 "Hg10 mi
9:00 am41 °FSunny.2 mph93%30.15 "Hg10 mi
8:30 am41 °FClear.2 mph93%30.15 "Hg10 mi
8:00 am41 °FClear.No wind93%30.15 "Hg10 mi
7:30 am41 °FClear.No wind93%30.12 "Hg10 mi
7:00 am43 °FClear.6 mph93%30.12 "Hg10 mi
6:30 am43 °FQuite cool.7 mph93%30.12 "HgN/A
6:00 am45 °FQuite cool.8 mph87%30.12 "HgN/A
5:30 am43 °FQuite cool.5 mph93%30.12 "HgN/A
4:30 am45 °FQuite cool.2 mph87%30.15 "HgN/A
4:00 am46 °FClear.5 mph87%30.15 "Hg10 mi
3:30 am48 °FPassing clouds.5 mph82%30.15 "HgN/A
3:00 am48 °FClear.2 mph82%30.15 "Hg10 mi
2:30 am48 °FCool.1 mph82%30.15 "HgN/A
1:30 am50 °FCool.3 mph76%30.15 "HgN/A
1:00 am50 °FCool.8 mph76%30.15 "HgN/A
12:30 am50 °FCool.7 mph76%30.15 "HgN/A
12:00 am52 °FPassing clouds.8 mph72%30.15 "HgN/A
11:00 pm
Tue, Oct 15
52 °FPassing clouds.8 mph72%30.18 "HgN/A
10:30 pm52 °FClear.8 mph72%30.15 "Hg10 mi
10:00 pm52 °FClear.8 mph72%30.18 "Hg10 mi
9:30 pm52 °FClear.8 mph72%30.15 "Hg10 mi
9:00 pm52 °FClear.9 mph72%30.15 "Hg10 mi
8:30 pm50 °FClear.5 mph76%30.15 "Hg10 mi
8:00 pm52 °FClear.5 mph72%30.15 "Hg10 mi
7:30 pm54 °FPassing clouds.5 mph58%30.15 "HgN/A
7:00 pm57 °FSunny.9 mph51%30.15 "Hg10 mi
Weather by CustomWeather, © 2019

See weather overview